Mojave, CA

4:45 AM PDT on September 21, 2019 (GMT -0700)
Mojave

Weather History for KMHV - August, 2019

Change the Weather History Date:

Friday, August 23, 2019

  Actual Average Record
Temperature  
Mean Temperature 80 °F -  
Max Temperature 95 °F 93 °F 103 °F (1969)
Min Temperature 66 °F 63 °F 51 °F (1968)
Cooling Degree Days 16    
Growing Degree Days 30 (Base 50)    
Moisture  
Dew Point 34 °F    
Average Humidity 20    
Maximum Humidity 35    
Minimum Humidity 6    
Precipitation  
Precipitation 0.00 in - - ()
Sea Level Pressure  
Sea Level Pressure 29.87 in    
Wind  
Wind Speed 9 mph (SW)    
Max Wind Speed 20 mph    
Max Gust Speed 24 mph    
Visibility 10 miles    
Events      
Averages and records for this station are not official NWS values.
T = Trace of Precipitation, MM = Missing Value Source: NWS Daily Summary

Daily Weather History Graph

Daily Weather History Graph

Search for Another Location

Airport or City:

Astronomy

Aug. 23, 2019 Rise Set
Actual Time 6:18 AM PDT 7:31 PM PDT
Civil Twilight 5:52 AM PDT 7:57 PM PDT
Nautical Twilight 5:20 AM PDT 8:29 PM PDT
Astronomical Twilight 4:48 AM PDT 9:01 PM PDT
Moon No Moon Rise 1:43 PM PDT (8/23)
Length of Visible Light 14h 05m
Length of Day
13h 12m
Waning Gibbous, 48% of the Moon is Illuminated
Aug 23
Waning Gibbous
Aug 30
New
Sep 5
First Quarter
Sep 13
Full
Sep 21
Last Quarter

Hourly Weather History & Observations

Time (PDT) Temp. Dew Point Humidity Pressure Visibility Wind Dir Wind Speed Gust Speed Precip Events Conditions
12:00 AM 78.8 °F 30.2 °F 17% 29.81 in 10.0 mi WSW 9.2 mph 17.3 mph N/A   Clear
12:20 AM 77.0 °F 30.2 °F 18% 29.80 in 10.0 mi SW 8.1 mph - N/A   Clear
12:40 AM 78.8 °F 26.6 °F 15% 29.80 in 10.0 mi SW 12.7 mph - N/A   Clear
1:00 AM 78.8 °F 26.6 °F 15% 29.80 in 10.0 mi WSW 13.8 mph - N/A   Clear
1:20 AM 78.8 °F 26.6 °F 15% 29.80 in 10.0 mi West 13.8 mph - N/A   Clear
1:40 AM 77.0 °F 28.4 °F 17% 29.80 in 10.0 mi West 8.1 mph - N/A   Clear
2:00 AM 77.0 °F 28.4 °F 17% 29.81 in 10.0 mi WNW 5.8 mph - N/A   Clear
2:20 AM 75.2 °F 30.2 °F 19% 29.82 in 10.0 mi WNW 9.2 mph - N/A   Clear
2:40 AM 75.2 °F 32.0 °F 21% 29.82 in 10.0 mi WNW 6.9 mph - N/A   Clear
3:00 AM 73.4 °F 35.6 °F 25% 29.83 in 10.0 mi WSW 11.5 mph - N/A   Clear
3:20 AM 71.6 °F 37.4 °F 29% 29.83 in 10.0 mi WSW 9.2 mph - N/A   Clear
3:40 AM 71.6 °F 37.4 °F 29% 29.83 in 10.0 mi WSW 10.4 mph - N/A   Clear
4:00 AM 71.6 °F 37.4 °F 29% 29.84 in 10.0 mi WSW 6.9 mph - N/A   Clear
4:20 AM 69.8 °F 37.4 °F 31% 29.84 in 10.0 mi West 5.8 mph - N/A   Clear
4:40 AM 68.0 °F 37.4 °F 33% 29.84 in 10.0 mi WSW 6.9 mph - N/A   Clear
5:00 AM 68.0 °F 33.8 °F 28% 29.85 in 10.0 mi WNW 3.5 mph - N/A   Clear
5:20 AM 66.2 °F 33.8 °F 30% 29.85 in 10.0 mi West 5.8 mph - N/A   Clear
5:40 AM 68.0 °F 35.6 °F 30% 29.85 in 10.0 mi SW 5.8 mph - N/A   Clear
6:00 AM 68.0 °F 37.4 °F 33% 29.85 in 10.0 mi WSW 6.9 mph - N/A   Clear
6:20 AM 66.2 °F 37.4 °F 35% 29.86 in 10.0 mi WSW 3.5 mph - N/A   Clear
6:40 AM 66.2 °F 35.6 °F 32% 29.87 in 10.0 mi Calm Calm - N/A   Clear
7:00 AM 68.0 °F 35.6 °F 30% 29.88 in 10.0 mi Calm Calm - N/A   Clear
7:20 AM 71.6 °F 37.4 °F 29% 29.88 in 10.0 mi North 3.5 mph - N/A   Clear
7:40 AM 77.0 °F 39.2 °F 26% 29.89 in 10.0 mi Calm Calm - N/A   Clear
8:00 AM 77.0 °F 39.2 °F 26% 29.89 in 10.0 mi ENE 4.6 mph - N/A   Clear
8:20 AM 77.0 °F 41.0 °F 28% 29.90 in 10.0 mi NE 10.4 mph - N/A   Clear
8:40 AM 75.2 °F 39.2 °F 27% 29.91 in 10.0 mi ENE 10.4 mph - N/A   Clear
9:00 AM 75.2 °F 39.2 °F 27% 29.91 in 10.0 mi NE 9.2 mph - N/A   Clear
9:20 AM 78.8 °F 39.2 °F 24% 29.92 in 10.0 mi NNE 5.8 mph - N/A   Clear
9:40 AM 78.8 °F 39.2 °F 24% 29.93 in 10.0 mi NE 5.8 mph - N/A   Clear
10:00 AM 80.6 °F 39.2 °F 23% 29.93 in 10.0 mi ENE 5.8 mph - N/A   Clear
10:20 AM 82.4 °F 39.2 °F 21% 29.93 in 10.0 mi ENE 5.8 mph - N/A   Clear
10:40 AM 82.4 °F 39.2 °F 21% 29.93 in 10.0 mi Variable 3.5 mph - N/A   Clear
11:00 AM 84.2 °F 41.0 °F 22% 29.92 in 10.0 mi Variable 4.6 mph - N/A   Clear
11:20 AM 86.0 °F 41.0 °F 20% 29.92 in 10.0 mi ENE 5.8 mph - N/A   Clear
11:40 AM 87.8 °F 39.2 °F 18% 29.92 in 10.0 mi Variable 4.6 mph - N/A   Clear
12:00 PM 87.8 °F 37.4 °F 17% 29.91 in 10.0 mi Calm Calm - N/A   Clear
12:20 PM 91.4 °F 37.4 °F 15% 29.90 in 10.0 mi Variable 5.8 mph - N/A   Clear
12:40 PM 89.6 °F 33.8 °F 14% 29.90 in 10.0 mi South 10.4 mph - N/A   Clear
1:00 PM 93.2 °F 30.2 °F 11% 29.90 in 10.0 mi SSW 10.4 mph - N/A   Clear
1:20 PM 93.2 °F 26.6 °F 9% 29.89 in 10.0 mi Calm Calm - N/A   Clear
1:40 PM 95.0 °F 19.4 °F 6% 29.89 in 10.0 mi SW 13.8 mph - N/A   Clear
2:00 PM 93.2 °F 21.2 °F 7% 29.89 in 10.0 mi South 12.7 mph - N/A   Clear
2:20 PM 93.2 °F 21.2 °F 7% 29.88 in 10.0 mi Variable 5.8 mph 12.7 mph N/A   Clear
3:00 PM 95.0 °F 23.0 °F 8% 29.87 in 10.0 mi South 12.7 mph - N/A   Clear
3:20 PM 95.0 °F 30.2 °F 10% 29.86 in 10.0 mi SSE 9.2 mph 17.3 mph N/A   Clear
4:00 PM 95.0 °F 21.2 °F 7% 29.86 in 10.0 mi SSW 10.4 mph - N/A   Clear
4:20 PM 95.0 °F 26.6 °F 9% 29.85 in 10.0 mi SSW 12.7 mph 18.4 mph N/A   Clear
4:40 PM 95.0 °F 26.6 °F 9% 29.85 in 10.0 mi SW 11.5 mph 18.4 mph N/A   Clear
5:00 PM 93.2 °F 30.2 °F 11% 29.85 in 10.0 mi SSW 16.1 mph 23.0 mph N/A   Clear
5:20 PM 93.2 °F 30.2 °F 11% 29.86 in 10.0 mi SSW 18.4 mph 24.2 mph N/A   Clear
5:40 PM 91.4 °F 32.0 °F 12% 29.86 in 10.0 mi SSW 19.6 mph - N/A   Clear
6:00 PM 91.4 °F 32.0 °F 12% 29.86 in 10.0 mi North - - N/A   Clear
6:20 PM 89.6 °F 33.8 °F 14% 29.85 in 10.0 mi SW 17.3 mph - N/A   Unknown
6:40 PM 89.6 °F 33.8 °F 14% 29.85 in 10.0 mi SW 16.1 mph - N/A   Clear
7:00 PM 87.8 °F 32.0 °F 14% 29.85 in 10.0 mi SW 15.0 mph - N/A   Clear
7:20 PM 86.0 °F 32.0 °F 14% 29.86 in 10.0 mi SW 11.5 mph - N/A   Clear
7:40 PM 84.2 °F 32.0 °F 15% 29.87 in 10.0 mi SW 13.8 mph - N/A   Clear
8:00 PM 84.2 °F 32.0 °F 15% 29.87 in 10.0 mi SW 13.8 mph - N/A   Clear
8:20 PM 84.2 °F 32.0 °F 15% 29.88 in 10.0 mi WSW 12.7 mph - N/A   Clear
8:40 PM 82.4 °F 33.8 °F 17% 29.88 in 10.0 mi SW 16.1 mph - N/A   Clear
9:00 PM 80.6 °F 35.6 °F 20% 29.89 in 10.0 mi SW 12.7 mph - N/A   Clear
9:20 PM 80.6 °F 37.4 °F 21% 29.90 in 10.0 mi SW 11.5 mph - N/A   Clear
9:40 PM 80.6 °F 39.2 °F 23% 29.90 in 10.0 mi WSW 11.5 mph - N/A   Clear
10:00 PM 78.8 °F 39.2 °F 24% 29.90 in 10.0 mi WSW 12.7 mph - N/A   Unknown
10:20 PM 80.6 °F 39.2 °F 23% 29.91 in 10.0 mi WSW 10.4 mph - N/A   Clear
10:40 PM 80.6 °F 37.4 °F 21% 29.91 in 10.0 mi WSW 12.7 mph - N/A   Partly Cloudy
11:00 PM 80.6 °F 37.4 °F 21% 29.92 in 10.0 mi WSW 12.7 mph - N/A   Scattered Clouds
11:20 PM 78.8 °F 39.2 °F 24% 29.92 in 10.0 mi WSW 12.7 mph - N/A   Scattered Clouds
11:40 PM 78.8 °F 39.2 °F 24% 29.92 in 10.0 mi WSW 9.2 mph - N/A   Partly Cloudy